Time,TemperatureF,DewpointF,PressureIn,WindDirection,WindDirectionDegrees,WindSpeedMPH,WindSpeedGustMPH,Humidity,HourlyPrecipIn,Conditions,Clouds,dailyrainin,SoftwareType,DateUTC
2013-02-04 18:36:00,15.5,11.3,29.91,N/A,-737280,0.0,-999.0,83,0.00,,,0.01,Wunderground v.1.15,2013-02-04 23:36:00,
2013-02-04 18:41:00,15.5,11.3,29.91,N/A,-737280,0.0,-999.0,83,0.00,,,0.01,Wunderground v.1.15,2013-02-04 23:41:00,
2013-02-04 18:46:00,12.8,9.7,29.92,N/A,-737280,0.0,-999.0,87,0.00,,,0.01,Wunderground v.1.15,2013-02-04 23:46:00,
2013-02-04 18:51:00,12.8,9.7,29.92,N/A,-737280,0.0,-999.0,87,0.00,,,0.01,Wunderground v.1.15,2013-02-04 23:51:00,
2013-02-04 18:56:00,12.8,9.7,29.92,N/A,-737280,0.0,-999.0,87,0.00,,,0.01,Wunderground v.1.15,2013-02-04 23:56:00,
2013-02-04 19:01:00,12.8,9.7,29.92,N/A,-737280,0.0,-999.0,87,0.00,,,0.01,Wunderground v.1.15,2013-02-05 00:01:00,
2013-02-04 19:06:00,12.8,9.7,29.92,N/A,-737280,0.0,-999.0,87,0.00,,,0.01,Wunderground v.1.15,2013-02-05 00:06:00,
2013-02-04 19:11:00,12.8,9.7,29.92,N/A,-737280,0.0,-999.0,87,0.00,,,0.01,Wunderground v.1.15,2013-02-05 00:11:00,
2013-02-04 19:16:00,10.7,8.1,29.93,N/A,-737280,0.0,-999.0,89,0.00,,,0.01,Wunderground v.1.15,2013-02-05 00:16:00,
2013-02-04 19:21:00,10.7,8.1,29.93,N/A,-737280,0.0,-999.0,89,0.00,,,0.01,Wunderground v.1.15,2013-02-05 00:21:00,
2013-02-04 19:26:00,10.7,8.1,29.93,N/A,-737280,0.0,-999.0,89,0.00,,,0.01,Wunderground v.1.15,2013-02-05 00:26:00,
2013-02-04 19:31:00,10.7,8.1,29.93,N/A,-737280,0.0,-999.0,89,0.00,,,0.01,Wunderground v.1.15,2013-02-05 00:31:00,
2013-02-04 19:36:00,10.7,8.1,29.93,N/A,-737280,0.0,-999.0,89,0.00,,,0.01,Wunderground v.1.15,2013-02-05 00:36:00,
2013-02-04 19:41:00,10.7,8.1,29.93,N/A,-737280,0.0,-999.0,89,0.00,,,0.01,Wunderground v.1.15,2013-02-05 00:41:00,
2013-02-04 19:46:00,9.5,6.9,29.94,N/A,-737280,0.0,-999.0,89,0.00,,,0.01,Wunderground v.1.15,2013-02-05 00:46:00,
2013-02-04 19:51:00,9.5,6.9,29.94,N/A,-737280,0.0,-999.0,89,0.00,,,0.01,Wunderground v.1.15,2013-02-05 00:51:00,
2013-02-04 19:56:00,9.5,6.9,29.94,N/A,-737280,0.0,-999.0,89,0.00,,,0.01,Wunderground v.1.15,2013-02-05 00:56:00,
2013-02-04 20:01:00,9.5,6.9,29.94,N/A,-737280,0.0,-999.0,89,0.00,,,0.01,Wunderground v.1.15,2013-02-05 01:01:00,
2013-02-04 20:06:00,9.5,6.9,29.94,N/A,-737280,0.0,-999.0,89,0.00,,,0.01,Wunderground v.1.15,2013-02-05 01:06:00,
2013-02-04 20:11:00,9.5,6.9,29.94,N/A,-737280,0.0,-999.0,89,0.00,,,0.01,Wunderground v.1.15,2013-02-05 01:11:00,
2013-02-04 20:16:00,8.4,5.8,29.95,West,270,0.0,-999.0,89,0.00,,,0.01,Wunderground v.1.15,2013-02-05 01:16:00,
2013-02-04 20:21:00,8.4,5.8,29.95,West,270,0.0,-999.0,89,0.00,,,0.01,Wunderground v.1.15,2013-02-05 01:21:00,
2013-02-04 20:26:00,8.4,5.8,29.95,West,270,0.0,-999.0,89,0.00,,,0.01,Wunderground v.1.15,2013-02-05 01:26:00,
2013-02-04 20:31:00,8.4,5.8,29.95,West,270,0.0,-999.0,89,0.00,,,0.01,Wunderground v.1.15,2013-02-05 01:31:00,
2013-02-04 20:36:00,8.4,5.8,29.95,West,270,0.0,-999.0,89,0.00,,,0.01,Wunderground v.1.15,2013-02-05 01:36:00,
2013-02-04 20:41:00,8.4,5.8,29.95,West,270,0.0,-999.0,89,0.00,,,0.01,Wunderground v.1.15,2013-02-05 01:41:00,
2013-02-04 20:46:00,7.8,5.2,29.95,N/A,-737280,0.0,-999.0,89,0.00,,,0.01,Wunderground v.1.15,2013-02-05 01:46:00,
2013-02-04 20:51:00,7.8,5.2,29.95,N/A,-737280,0.0,-999.0,89,0.00,,,0.01,Wunderground v.1.15,2013-02-05 01:51:00,
2013-02-04 20:56:00,7.8,5.2,29.95,N/A,-737280,0.0,-999.0,89,0.00,,,0.01,Wunderground v.1.15,2013-02-05 01:56:00,
2013-02-04 21:01:00,7.8,5.2,29.95,N/A,-737280,0.0,-999.0,89,0.00,,,0.01,Wunderground v.1.15,2013-02-05 02:01:00,
2013-02-04 21:06:00,7.8,5.2,29.95,N/A,-737280,0.0,-999.0,89,0.00,,,0.01,Wunderground v.1.15,2013-02-05 02:06:00,
2013-02-04 21:11:00,7.8,5.2,29.95,N/A,-737280,0.0,-999.0,89,0.00,,,0.01,Wunderground v.1.15,2013-02-05 02:11:00,
2013-02-04 21:16:00,6.7,4.1,29.95,N/A,-737280,0.0,-999.0,89,0.00,,,0.01,Wunderground v.1.15,2013-02-05 02:16:00,
2013-02-04 21:21:00,6.7,4.1,29.95,N/A,-737280,0.0,-999.0,89,0.00,,,0.01,Wunderground v.1.15,2013-02-05 02:21:00,
2013-02-04 21:26:00,6.7,4.1,29.95,N/A,-737280,0.0,-999.0,89,0.00,,,0.01,Wunderground v.1.15,2013-02-05 02:26:00,
2013-02-04 21:31:00,6.7,4.1,29.95,N/A,-737280,0.0,-999.0,89,0.00,,,0.01,Wunderground v.1.15,2013-02-05 02:31:00,
2013-02-04 21:36:00,6.7,4.1,29.95,N/A,-737280,0.0,-999.0,89,0.00,,,0.01,Wunderground v.1.15,2013-02-05 02:36:00,
2013-02-04 21:41:00,6.7,4.1,29.95,N/A,-737280,0.0,-999.0,89,0.00,,,0.01,Wunderground v.1.15,2013-02-05 02:41:00,
2013-02-04 21:46:00,5.9,3.4,29.94,N/A,-737280,0.0,-999.0,89,0.00,,,0.01,Wunderground v.1.15,2013-02-05 02:46:00,
2013-02-04 21:51:00,5.9,3.4,29.94,N/A,-737280,0.0,-999.0,89,0.00,,,0.01,Wunderground v.1.15,2013-02-05 02:51:00,
2013-02-04 21:56:00,5.9,3.4,29.94,N/A,-737280,0.0,-999.0,89,0.00,,,0.01,Wunderground v.1.15,2013-02-05 02:56:00,
2013-02-04 22:01:00,5.9,3.4,29.94,N/A,-737280,0.0,-999.0,89,0.00,,,0.01,Wunderground v.1.15,2013-02-05 03:01:00,
2013-02-04 22:06:00,5.9,3.4,29.94,N/A,-737280,0.0,-999.0,89,0.00,,,0.01,Wunderground v.1.15,2013-02-05 03:06:00,
2013-02-04 22:11:00,5.9,3.4,29.94,N/A,-737280,0.0,-999.0,89,0.00,,,0.01,Wunderground v.1.15,2013-02-05 03:11:00,
2013-02-04 22:16:00,5.5,3.0,29.94,N/A,-737280,0.0,-999.0,89,0.00,,,0.01,Wunderground v.1.15,2013-02-05 03:16:00,
2013-02-04 22:21:00,5.5,3.0,29.94,N/A,-737280,0.0,-999.0,89,0.00,,,0.01,Wunderground v.1.15,2013-02-05 03:21:00,
2013-02-04 22:26:00,5.5,3.0,29.94,N/A,-737280,0.0,-999.0,89,0.00,,,0.01,Wunderground v.1.15,2013-02-05 03:26:00,
2013-02-04 22:31:00,5.5,3.0,29.94,N/A,-737280,0.0,-999.0,89,0.00,,,0.01,Wunderground v.1.15,2013-02-05 03:31:00,
2013-02-04 22:36:00,5.5,3.0,29.94,N/A,-737280,0.0,-999.0,89,0.00,,,0.01,Wunderground v.1.15,2013-02-05 03:36:00,
2013-02-04 22:41:00,5.5,3.0,29.94,N/A,-737280,0.0,-999.0,89,0.00,,,0.01,Wunderground v.1.15,2013-02-05 03:41:00,
2013-02-04 22:46:00,5.3,2.8,29.95,N/A,-737280,0.0,-999.0,89,0.00,,,0.01,Wunderground v.1.15,2013-02-05 03:46:00,
2013-02-04 22:51:00,5.3,2.8,29.95,N/A,-737280,0.0,-999.0,89,0.00,,,0.01,Wunderground v.1.15,2013-02-05 03:51:00,
2013-02-04 22:56:00,5.3,2.8,29.95,N/A,-737280,0.0,-999.0,89,0.00,,,0.01,Wunderground v.1.15,2013-02-05 03:56:00,
2013-02-04 23:01:00,5.3,2.8,29.95,N/A,-737280,0.0,-999.0,89,0.00,,,0.01,Wunderground v.1.15,2013-02-05 04:01:00,
2013-02-04 23:06:00,5.3,2.8,29.95,N/A,-737280,0.0,-999.0,89,0.00,,,0.01,Wunderground v.1.15,2013-02-05 04:06:00,
2013-02-04 23:11:00,5.3,2.8,29.95,N/A,-737280,0.0,-999.0,89,0.00,,,0.01,Wunderground v.1.15,2013-02-05 04:11:00,
2013-02-04 23:16:00,5.1,2.6,29.96,N/A,-737280,0.0,-999.0,89,0.00,,,0.01,Wunderground v.1.15,2013-02-05 04:16:00,
2013-02-04 23:21:00,5.1,2.6,29.96,N/A,-737280,0.0,-999.0,89,0.00,,,0.01,Wunderground v.1.15,2013-02-05 04:21:00,
2013-02-04 23:26:00,5.1,2.6,29.96,N/A,-737280,0.0,-999.0,89,0.00,,,0.01,Wunderground v.1.15,2013-02-05 04:26:00,
2013-02-04 23:31:00,5.1,2.6,29.96,N/A,-737280,0.0,-999.0,89,0.00,,,0.01,Wunderground v.1.15,2013-02-05 04:31:00,
2013-02-04 23:36:00,5.1,2.6,29.96,N/A,-737280,0.0,-999.0,89,0.00,,,0.01,Wunderground v.1.15,2013-02-05 04:36:00,
2013-02-04 23:41:00,5.1,2.6,29.96,N/A,-737280,0.0,-999.0,89,0.00,,,0.01,Wunderground v.1.15,2013-02-05 04:41:00,
2013-02-04 23:46:00,5.0,2.5,29.95,N/A,-737280,0.0,-999.0,89,0.00,,,0.01,Wunderground v.1.15,2013-02-05 04:46:00,
2013-02-04 23:51:00,5.0,2.5,29.95,N/A,-737280,0.0,-999.0,89,0.00,,,0.01,Wunderground v.1.15,2013-02-05 04:51:00,
2013-02-04 23:56:00,5.0,2.5,29.95,N/A,-737280,0.0,-999.0,89,0.00,,,0.01,Wunderground v.1.15,2013-02-05 04:56:00,